Change the Weather History Date:

Thursday, May 23, 2013

  Actual Average Record
Temperature  
Mean Temperature 64 °F -  
Max Temperature 69 °F 75 °F 87 °F (2007)
Min Temperature 57 °F 59 °F 48 °F (2004)
Degree Days  
Heating Degree Days 1    
Growing Degree Days 14 (Base 50)    
Moisture  
Dew Point 49 °F    
Average Humidity 60    
Maximum Humidity 82    
Minimum Humidity 40    
Precipitation  
Precipitation 0.00 in 0.10 in - ()
Sea Level Pressure  
Sea Level Pressure 29.55 in    
Wind  
Wind Speed 7 mph ()    
Max Wind Speed 16 mph    
Max Gust Speed -    
Visibility 6.2 miles    
Events Rain    
Averages and records for this station are not official NWS values.
T = Trace of Precipitation, MM = Missing Value Source: Averaged Metar Reports

Daily Weather History Graph

Daily Weather History Graph

Search for Another Location

Airport or City:

Trip Planner

Search our weather history database for the weather conditions in past years. The results will help you decide how hot, cold, wet, or windy it might be!

Date:

Astronomy

May. 23, 2013 Rise Set
Actual Time 5:31 AM CEST 8:43 PM CEST
Civil Twilight 4:56 AM CEST 9:19 PM CEST
Nautical Twilight 4:09 AM CEST 10:05 PM CEST
Astronomical Twilight 3:13 AM CEST 11:03 PM CEST
Moon 6:51 PM CEST (5/23) 4:10 AM CEST (5/23)
Length of Visible Light 16h 23m
Length of Day
15h 11m
Waxing Gibbous, 95% of the Moon is Illuminated
May 23
Waxing Gibbous
May 25
Full
May 31
Last Quarter
Jun 8
New
Jun 16
First Quarter

Hourly Weather History & Observations

Time (CEST) Temp. Dew Point Humidity Pressure Visibility Wind Dir Wind Speed Gust Speed Precip Events Conditions
12:20 AM 59.0 °F 51.8 °F 77% 29.56 in - Variable 3.5 mph - N/A   Clear
12:50 AM 59.0 °F 53.6 °F 82% 29.56 in - North 4.6 mph - N/A   Clear
1:20 AM 59.0 °F 53.6 °F 82% 29.56 in - North 4.6 mph - N/A   Clear
1:50 AM 60.8 °F 53.6 °F 77% 29.56 in - North 6.9 mph - N/A   Clear
2:20 AM 62.6 °F 53.6 °F 72% 29.53 in - NNE 9.2 mph - N/A   Clear
2:50 AM 62.6 °F 51.8 °F 68% 29.56 in - NE 11.5 mph - N/A   Clear
3:20 AM 62.6 °F 53.6 °F 72% 29.56 in 6.2 mi NE 16.1 mph - N/A Rain Rain
3:50 AM 62.6 °F 53.6 °F 72% 29.56 in 6.2 mi NE 15.0 mph - N/A   Scattered Clouds
4:20 AM 62.6 °F 53.6 °F 72% 29.56 in 6.2 mi NE 11.5 mph - N/A   Scattered Clouds
4:50 AM 60.8 °F 50.0 °F 68% 29.53 in 6.2 mi North 9.2 mph - N/A   Scattered Clouds
5:20 AM 62.6 °F 48.2 °F 59% 29.53 in 6.2 mi NNE 9.2 mph - N/A   Scattered Clouds
5:50 AM 60.8 °F 50.0 °F 68% 29.53 in 6.2 mi North 5.8 mph - N/A   Scattered Clouds
6:20 AM 62.6 °F 46.4 °F 55% 29.53 in 6.2 mi NNE 6.9 mph - N/A   Scattered Clouds
6:50 AM 60.8 °F 46.4 °F 59% 29.53 in 6.2 mi NNE 6.9 mph - N/A   Scattered Clouds
7:20 AM 59.0 °F 50.0 °F 72% 29.56 in 6.2 mi North 4.6 mph - N/A   Partly Cloudy
7:50 AM 59.0 °F 51.8 °F 77% 29.56 in 6.2 mi Variable 3.5 mph - N/A   Partly Cloudy
8:20 AM 60.8 °F 50.0 °F 68% 29.56 in 6.2 mi North 4.6 mph - N/A   Partly Cloudy
8:50 AM 62.6 °F 48.2 °F 59% 29.56 in 6.2 mi NNE 4.6 mph - N/A   Partly Cloudy
9:20 AM 62.6 °F 50.0 °F 63% 29.56 in - NE 4.6 mph - N/A   Clear
9:50 AM 66.2 °F 50.0 °F 56% 29.56 in - NE 5.8 mph - N/A   Clear
10:20 AM 66.2 °F 46.4 °F 49% 29.56 in - NE 8.1 mph - N/A   Clear
10:50 AM 66.2 °F 44.6 °F 46% 29.56 in - NE 6.9 mph - N/A   Clear
11:20 AM 68.0 °F 46.4 °F 46% 29.56 in - East 8.1 mph - N/A   Clear
11:50 AM 68.0 °F 44.6 °F 43% 29.56 in - East 6.9 mph - N/A   Clear
12:20 PM 68.0 °F 46.4 °F 46% 29.56 in - East 6.9 mph - N/A   Clear
12:50 PM 69.8 °F 50.0 °F 49% 29.53 in 6.2 mi ESE 9.2 mph - N/A   Partly Cloudy
1:20 PM 68.0 °F 48.2 °F 49% 29.53 in 6.2 mi ESE 9.2 mph - N/A   Partly Cloudy
1:50 PM 68.0 °F 48.2 °F 49% 29.53 in 6.2 mi ESE 9.2 mph - N/A   Partly Cloudy
2:20 PM 69.8 °F 50.0 °F 49% 29.53 in 6.2 mi ESE 9.2 mph - N/A   Partly Cloudy
2:50 PM 68.0 °F 44.6 °F 43% 29.53 in 6.2 mi ESE 9.2 mph - N/A   Partly Cloudy
3:20 PM 69.8 °F 48.2 °F 46% 29.53 in 6.2 mi ESE 12.7 mph - N/A   Partly Cloudy
3:50 PM 69.8 °F 44.6 °F 40% 29.53 in 6.2 mi ESE 12.7 mph - N/A   Partly Cloudy
4:20 PM 69.8 °F 44.6 °F 40% 29.53 in 6.2 mi ESE 13.8 mph - N/A   Scattered Clouds
4:50 PM 69.8 °F 44.6 °F 40% 29.53 in 6.2 mi East 13.8 mph - N/A   Scattered Clouds
5:20 PM 68.0 °F 42.8 °F 40% 29.53 in 6.2 mi ESE 13.8 mph - N/A   Scattered Clouds
5:50 PM 68.0 °F 42.8 °F 40% 29.53 in 6.2 mi ESE 11.5 mph - N/A   Scattered Clouds
6:20 PM 66.2 °F 46.4 °F 49% 29.53 in 6.2 mi ESE 9.2 mph - N/A   Scattered Clouds
6:50 PM 66.2 °F 48.2 °F 52% 29.53 in 6.2 mi ESE 9.2 mph - N/A   Scattered Clouds
7:20 PM 66.2 °F 50.0 °F 56% 29.53 in 6.2 mi East 4.6 mph - N/A   Scattered Clouds
7:50 PM 64.4 °F 44.6 °F 49% 29.53 in 6.2 mi Variable 3.5 mph - N/A   Scattered Clouds
8:20 PM 64.4 °F 48.2 °F 56% 29.53 in 6.2 mi Variable 3.5 mph - N/A   Scattered Clouds
8:50 PM 60.8 °F 48.2 °F 63% 29.56 in 6.2 mi North 6.9 mph - N/A   Scattered Clouds
9:20 PM 59.0 °F 50.0 °F 72% 29.56 in 6.2 mi NNE 5.8 mph - N/A   Mostly Cloudy
9:50 PM 59.0 °F 51.8 °F 77% 29.56 in 6.2 mi North 6.9 mph - N/A   Mostly Cloudy
10:20 PM 59.0 °F 50.0 °F 72% 29.56 in 6.2 mi NNE 6.9 mph - N/A   Mostly Cloudy
10:50 PM 59.0 °F 50.0 °F 72% 29.56 in 6.2 mi North 5.8 mph - N/A   Mostly Cloudy
11:20 PM 59.0 °F 50.0 °F 72% 29.59 in 6.2 mi North 8.1 mph - N/A Rain Light Rain
11:50 PM 57.2 °F 51.8 °F 82% 29.59 in 6.2 mi North 8.1 mph - N/A Rain Light Rain